Change the Weather History Date:

Monday, February 11, 2013

  Actual Average (KISQ) Record (KISQ)
Temperature  
Mean Temperature 31 °F -  
Max Temperature 37 °F 27 °F 44 °F (1999)
Min Temperature 25 °F 8 °F -20 °F (2014)
Degree Days  
Heating Degree Days 34    
Moisture  
Dew Point 26 °F    
Average Humidity 82    
Maximum Humidity 92    
Minimum Humidity 69    
Precipitation  
Precipitation 0.22 in - - ()
Sea Level Pressure  
Sea Level Pressure 29.45 in    
Wind  
Wind Speed 9 mph (West)    
Max Wind Speed 26 mph    
Max Gust Speed 39 mph    
Averages and records for this station are not official NWS values.
T = Trace of Precipitation, MM = Missing Value Source: NWS Daily Summary

Daily Weather History Graph

Daily Weather History Graph

Search for Another Location

Airport or City:

Trip Planner

Search our weather history database for the weather conditions in past years. The results will help you decide how hot, cold, wet, or windy it might be!

Date:

Astronomy

Feb. 11, 2013 Rise Set
Actual Time 7:55 AM EST 6:06 PM EST
Civil Twilight 7:24 AM EST 6:37 PM EST
Nautical Twilight 6:49 AM EST 7:13 PM EST
Astronomical Twilight 6:14 AM EST 7:48 PM EST
Moon 8:11 AM EST (2/11) 8:13 PM EST (2/11)
Length of Visible Light 11h 13m
Length of Day
10h 10m
Waxing Crescent, 3% of the Moon is Illuminated
Feb 11
Waxing Crescent
Feb 17
First Quarter
Feb 25
Full
Mar 4
Last Quarter
Mar 11
New

Hourly Weather History & Observations

Time (EST) Temp. Windchill Dew Point Humidity Pressure Visibility Wind Dir Wind Speed Gust Speed Precip Events Conditions
12:56 AM 35.1 °F 29.3 °F 30.9 °F 85% 29.39 in - Variable 6.9 mph 20.7 mph N/A   Unknown
1:56 AM 35.1 °F 31.0 °F 32.0 °F 89% 29.37 in - SSE 4.6 mph - 0.08 in   Unknown
2:56 AM 35.1 °F 31.0 °F 32.0 °F 89% 29.33 in - Variable 4.6 mph - 0.01 in   Unknown
3:56 AM 35.1 °F - 33.1 °F 92% 29.30 in - Calm Calm - 0.01 in   Unknown
4:56 AM 35.1 °F 31.0 °F 33.1 °F 92% 29.27 in - SSW 4.6 mph - N/A   Unknown
5:56 AM 37.0 °F 31.0 °F 34.0 °F 89% 29.26 in - South 8.1 mph - N/A   Unknown
6:56 AM 36.0 °F 30.3 °F 33.1 °F 89% 29.26 in - South 6.9 mph - N/A   Unknown
7:56 AM 35.1 °F 28.6 °F 32.0 °F 89% 29.27 in - South 8.1 mph - 0.01 in   Unknown
8:56 AM 34.0 °F 29.8 °F 30.9 °F 89% 29.27 in - South 4.6 mph - 0.03 in   Unknown
9:56 AM 35.1 °F 29.3 °F 32.0 °F 89% 29.28 in - SSW 6.9 mph - 0.01 in   Unknown
10:56 AM 36.0 °F 31.1 °F 32.0 °F 86% 29.28 in - SSW 5.8 mph - N/A   Unknown
11:56 AM 35.1 °F - 30.9 °F 85% 29.31 in - Calm Calm - 0.02 in   Unknown
12:56 PM 34.0 °F 24.6 °F 30.0 °F 85% 29.32 in - WNW 13.8 mph 23.0 mph 0.03 in   Unknown
1:56 PM 33.1 °F 20.9 °F 28.0 °F 82% 29.38 in - NW 21.9 mph 36.8 mph 0.02 in   Unknown
2:56 PM 30.0 °F 15.7 °F 24.1 °F 79% 29.44 in - NNW 26.5 mph 39.1 mph N/A   Unknown
3:56 PM 28.0 °F 14.9 °F 21.9 °F 78% 29.52 in - NW 19.6 mph 36.8 mph N/A   Unknown
4:56 PM 26.1 °F 11.0 °F 19.9 °F 78% 29.58 in - NW 24.2 mph 34.5 mph N/A   Unknown
5:56 PM 25.0 °F 9.2 °F 18.0 °F 75% 29.62 in - NW 25.3 mph 38.0 mph N/A   Unknown
6:56 PM 25.0 °F 10.6 °F 18.0 °F 75% 29.67 in - NNW 20.7 mph 32.2 mph N/A   Unknown
7:56 PM 25.0 °F 11.7 °F 17.1 °F 72% 29.70 in - NW 17.3 mph 29.9 mph N/A   Unknown
8:56 PM 25.0 °F 13.1 °F 17.1 °F 72% 29.73 in - NW 13.8 mph 26.5 mph N/A   Unknown
9:56 PM 25.0 °F 12.2 °F 16.0 °F 69% 29.75 in - NW 16.1 mph 26.5 mph N/A   Unknown
10:56 PM 25.0 °F 12.6 °F 16.0 °F 69% 29.77 in - NW 15.0 mph 21.9 mph N/A   Unknown
11:56 PM 25.0 °F 12.2 °F 17.1 °F 72% 29.79 in - NW 16.1 mph 19.6 mph N/A   Unknown